Regional Weather Roundup
Issued by NWS

Home | Current Version | Previous Version | Text Only | Print | Product List | Glossary Off
Versions: 1 2 3 4 5 6 7 8 9 10 11 12 13 14 15 16 17 18 19 20 21 22 23 24 25 26 27 28 29 30 31 32 33 34 35 36 37 38 39 40 41 42 43 44 45 46 47 48 49 50

000
ASUS43 KBIS 292210
RWRND

NORTH DAKOTA REGIONAL WEATHER ROUNDUP
NATIONAL WEATHER SERVICE BISMARCK ND
500 PM CDT MON MAY 29 2017

NOTE: "FAIR" INDICATES FEW OR NO CLOUDS BELOW 12,000 FEET WITH NO
SIGNIFICANT WEATHER AND/OR OBSTRUCTIONS TO VISIBILITY.


NDZ001>003-009>011-017-292300-
NORTHWEST NORTH DAKOTA

CITY           SKY/WX    TMP DP  RH WIND       PRES   REMARKS
WILLISTON      FAIR      69  31  24 NW22G30   30.07F
MINOT          PTSUNNY   66  35  31 NW28G35   29.98S
MINOT AFB      PTSUNNY   63  35  35 N22G30    29.97S
$$

NDZ018>021-031>035-040>046-292300-
SOUTHWEST NORTH DAKOTA

CITY           SKY/WX    TMP DP  RH WIND       PRES   REMARKS
BISMARCK       CLOUDY    65  36  34 NW20G29   30.02S
DICKINSON      FAIR      62  28  27 N20G31    30.06S
GARRISON         N/A     61  36  39 NW25G33   30.01R
HETTINGER ARPT PTSUNNY   66  32  28 N20G29    30.08F
$$

NDZ004>008-012>016-024-026-027-054-292300-
NORTHEAST NORTH DAKOTA

CITY           SKY/WX    TMP DP  RH WIND       PRES   REMARKS
GRAND FORKS    CLOUDY    56  48  74 NW17G23   29.88F
GRND FRKS AFB  CLOUDY    54  47  77 N14       29.89S
DEVILS LAKE    CLOUDY    54  45  71 N18G28    29.94R
$$

NDZ022-023-025-028>030-036>039-047>053-292300-
SOUTHEAST NORTH DAKOTA

CITY           SKY/WX    TMP DP  RH WIND       PRES   REMARKS
FARGO          CLOUDY    61  47  59 NW16      29.88F
JAMESTOWN      CLOUDY    57  42  57 NW16G24   29.95S
$$




USA.gov is the U.S. government's official web portal to all federal, state and local government web resources and services.